FW1976 Weather Reports


time (UTC)temp
F
wind
direction
speed
knots
gust
knots
rain 1hr
in
rain 24hr
in
rain mn
in
humidity
%
barometer
mb
20260507181554 56 167 3.5 7.8 0.00 0.00 0.00 72 1012.4
20260507180046 57 205 5.2 9.6 0.00 0.00 0.00 71 1012.2
20260507174555 57 190 4.3 7.8 0.00 0.00 0.00 70 1011.9
20260507173148 58 188 4.3 13.0 0.00 0.00 0.00 68 1011.8
20260507171549 59 181 5.2 11.3 0.00 0.00 0.00 67 1011.8
20260507170048 59 140 7.0 13.9 0.00 0.00 0.00 66 1011.6
20260507164552 60 182 7.8 10.4 0.00 0.00 0.00 64 1011.4
20260507163042 60 201 8.7 12.2 0.00 0.00 0.00 64 1011.4
20260507161557 61 214 7.8 12.2 0.00 0.00 0.00 64 1011.2
20260507160042 61 154 4.3 13.0 0.00 0.00 0.00 65 1011.2
20260507154542 61 182 7.8 13.0 0.00 0.00 0.00 65 1011.2
20260507153042 61 146 6.1 14.8 0.00 0.00 0.00 65 1011.3
20260507151539 61 167 4.3 13.9 0.00 0.00 0.00 64 1011.5
20260507150038 62 221 7.8 13.0 0.00 0.00 0.00 64 1011.3
20260507144537 61 196 7.8 14.8 0.00 0.00 0.00 65 1011.5
20260507143039 63 188 9.6 18.2 0.00 0.00 0.00 64 1011.6
20260507141536 63 173 10.4 18.2 0.00 0.00 0.00 59 1011.6
20260507140036 64 238 5.2 10.4 0.00 0.00 0.00 51 1011.7
20260507134532 64 188 1.7 8.7 0.00 0.00 0.00 49 1011.9
20260507133030 64 198 4.3 10.4 0.00 0.00 0.00 51 1012.1
20260507131533 63 206 4.3 10.4 0.00 0.00 0.00 55 1012.3
20260507130027 64 196 2.6 9.6 0.00 0.00 0.00 54 1012.3
20260507124524 64 76 4.3 8.7 0.00 0.00 0.00 52 1012.5
20260507123021 63 156 5.2 9.6 0.00 0.00 0.00 58 1012.6
20260507121519 62 230 4.3 10.4 0.00 0.00 0.00 60 1012.7
20260507120034 62 134 2.6 8.7 0.00 0.00 0.00 59 1012.8
20260507114512 61 190 5.2 8.7 0.00 0.00 0.00 62 1012.9
20260507113033 61 207 4.3 10.4 0.00 0.00 0.00 62 1013.2
20260507111509 61 175 6.1 11.3 0.00 0.00 0.00 61 1013.3
20260507110010 60 213 4.3 12.2 0.00 0.00 0.00 64 1013.5
20260507104503 60 168 3.5 7.8 0.00 0.00 0.00 64 1013.9
20260507103001 60 178 0.9 7.0 0.00 0.00 0.00 63 1013.9
20260507101604 59 158 2.6 8.7 0.00 0.00 0.00 66 1013.9
20260507094558 58 182 5.2 10.4 0.00 0.00 0.00 68 1014.2
20260507093053 58 161 3.5 6.1 0.00 0.00 0.00 69 1014.2
20260507091550 57 146 2.6 7.0 0.00 0.00 0.00 69 1014.2
20260507090050 56 227 5.2 8.7 0.00 0.00 0.00 73 1014.1
20260507084543 55 134 1.7 6.1 0.00 0.00 0.00 73 1014.2
20260507083042 55 209 3.5 7.8 0.00 0.00 0.00 74 1014.3
20260507081544 55 157 1.7 5.2 0.00 0.00 0.00 73 1014.4
20260507080038 54 169 1.7 6.1 0.00 0.00 0.00 74 1014.6
20260507074534 55 188 2.6 4.3 0.00 0.00 0.00 74 1014.6
20260507073030 55 140 0.9 2.6 0.00 0.00 0.00 75 1014.6
20260507071533 53 162 0.9 3.5 0.00 0.00 0.00 75 1014.5
20260507070024 55 202 0.9 2.6 0.00 0.00 0.00 74 1014.2
20260507064520 54 317 0.0 2.6 0.00 0.00 0.00 75 1014.1
20260507063016 52 5 0.0 2.6 0.00 0.00 0.00 76 1014.0
20260507061513 51 58 0.9 2.6 0.00 0.00 0.00 76 1014.0
20260507060008 50 167 1.7 2.6 0.00 0.00 0.00 74 1014.1
20260507054503 51 53 0.9 2.6 0.00 0.00 0.00 74 1014.0
20260507053100 51 41 1.7 3.5 0.00 0.00 0.00 74 1013.7
20260507051555 50 41 2.6 4.3 0.00 0.00 0.00 74 1013.6
20260507050057 49 22 2.6 3.5 0.00 0.00 0.00 75 1013.7
20260507044552 49 60 0.9 2.6 0.00 0.00 0.00 74 1013.7
20260507043051 50 52 1.7 4.3 0.00 0.00 0.00 73 1013.6
20260507041550 50 26 3.5 5.2 0.00 0.00 0.00 74 1013.6
20260507040056 50 22 3.5 7.0 0.00 0.00 0.00 74 1013.6
20260507034605 50 5 2.6 5.2 0.00 0.00 0.00 74 1013.7
20260507033102 50 38 3.5 7.0 0.00 0.00 0.00 74 1013.6
20260507031547 50 35 4.3 6.1 0.00 0.00 0.00 74 1013.7
20260507030045 50 40 4.3 7.0 0.00 0.00 0.00 74 1013.7
20260507024553 50 32 4.3 7.8 0.00 0.00 0.00 75 1013.9
20260507023043 50 40 4.3 8.7 0.00 0.00 0.00 76 1013.9
20260507021542 50 19 5.2 8.7 0.00 0.00 0.00 76 1013.8
20260507020041 50 21 5.2 9.6 0.00 0.00 0.00 76 1013.7
20260507014540 50 32 6.1 11.3 0.00 0.00 0.00 76 1013.9
20260507013040 50 42 7.0 10.4 0.00 0.00 0.00 76 1013.7
20260507011539 50 16 5.2 9.6 0.00 0.00 0.00 77 1014.0
20260507010039 50 28 7.0 10.4 0.00 0.00 0.00 77 1014.0
20260507004531 49 18 7.0 10.4 0.00 0.00 0.00 79 1014.1
20260507003028 49 39 6.1 8.7 0.00 0.00 0.00 81 1014.2
20260507001529 50 55 6.1 9.6 0.00 0.00 0.00 82 1014.4
20260507000028 50 59 4.3 8.7 0.00 0.00 0.00 82 1014.5
20260506234541 50 41 5.2 7.8 0.00 0.00 0.00 83 1014.5
20260506233032 50 40 3.5 7.0 0.00 0.00 0.00 83 1014.5
20260506231517 51 86 3.5 6.1 0.00 0.00 0.00 82 1014.5
20260506230015 51 74 3.5 5.2 0.00 0.00 0.00 82 1014.4
20260506224523 51 63 2.6 7.0 0.00 0.00 0.00 81 1014.5
20260506223010 51 63 1.7 4.3 0.00 0.00 0.00 80 1014.4
20260506221511 51 76 3.5 7.0 0.00 0.00 0.00 79 1014.2
20260506220013 51 82 2.6 6.1 0.00 0.00 0.00 79 1014.2
20260506214505 51 69 2.6 5.2 0.00 0.00 0.00 78 1014.2
20260506213004 51 115 3.5 6.1 0.00 0.00 0.00 78 1014.1
20260506211508 51 89 3.5 7.8 0.00 0.00 0.00 76 1014.0
20260506210004 52 108 3.5 6.1 0.00 0.06 0.00 75 1013.9
20260506204600 52 148 0.9 3.5 0.00 0.06 0.00 74 1013.7
20260506203102 53 184 1.7 5.2 0.00 0.06 0.00 72 1013.5
20260506201557 53 142 0.9 3.5 0.00 0.06 0.00 71 1013.3
20260506200054 54 169 1.7 5.2 0.00 0.06 0.00 69 1013.0
20260506194555 55 157 3.5 7.8 0.00 0.06 0.00 67 1012.8
20260506193058 56 171 2.6 8.7 0.00 0.06 0.00 62 1012.6
20260506191655 57 219 4.3 6.1 0.00 0.06 0.00 55 1012.3
20260506190052 57 220 4.3 8.7 0.00 0.06 0.00 55 1012.0
20260506184551 57 229 3.5 6.1 0.00 0.06 0.00 55 1011.8
20260506183059 58 233 1.7 4.3 0.00 0.06 0.00 54 1011.7